This is the latest recevied weather packets stored in our database for station/object W4GAP. If no packets are shown the sender has not sent any weather packets the latest 10 day(s).
| Time | Temp. | Humidity | Pressure | Rain* | Wind** | Luminosity | Snow |
|---|---|---|---|---|---|---|---|
| 1777636518 | 13.33° C | 77% | 1010.5 hPa | 0 mm | - | 9 W/m² | - |
| 1777636215 | 13.33° C | 77% | 1010.3 hPa | 0 mm | - | 7 W/m² | - |
| 1777635915 | 13.33° C | 76% | 1010.1 hPa | 0 mm | - | 6 W/m² | - |
| 1777635611 | 13.33° C | 76% | 1010.1 hPa | 0 mm | - | 5 W/m² | - |
| 1777635308 | 13.33° C | 77% | 1010.5 hPa | 0 mm | - | 3 W/m² | - |
| 1777635004 | 13.33° C | 75% | 1010.1 hPa | 0 mm | - | 3 W/m² | - |
| 1777634695 | 13.33° C | 74% | 1010.1 hPa | 0 mm | - | 5 W/m² | - |
| 1777634393 | 13.33° C | 74% | 1010 hPa | 0 mm | - | 2 W/m² | - |
| 1777634090 | 13.33° C | 75% | 1010.1 hPa | 0 mm | - | 2 W/m² | - |
| 1777633786 | 13.33° C | 75% | 1009.8 hPa | 0 mm | - | 0 W/m² | - |
| 1777633484 | 13.33° C | 75% | 1009.9 hPa | 0 mm | - | 1 W/m² | - |
| 1777633181 | 13.33° C | 76% | 1009.8 hPa | 0 mm | - | 0 W/m² | - |
| 1777632878 | 12.78° C | 76% | 1009.7 hPa | 0 mm | - | 0 W/m² | - |
| 1777632574 | 12.78° C | 76% | 1009.6 hPa | 0 mm | - | 0 W/m² | - |
| 1777632272 | 12.78° C | 76% | 1009.7 hPa | 0 mm | - | 0 W/m² | - |
| 1777631968 | 12.78° C | 77% | 1009.4 hPa | 0 mm | - | 0 W/m² | - |
| 1777631667 | 12.78° C | 78% | 1009.4 hPa | 0 mm | - | 0 W/m² | - |
| 1777631364 | 12.78° C | 77% | 1009.5 hPa | 0 mm | - | 0 W/m² | - |
| 1777631061 | 12.78° C | 77% | 1009.4 hPa | 0 mm | - | 0 W/m² | - |
| 1777630757 | 12.78° C | 77% | 1009.5 hPa | 0 mm | - | 0 W/m² | - |
| 1777630454 | 12.78° C | 77% | 1009.6 hPa | 0 mm | - | 0 W/m² | - |
| 1777630151 | 12.78° C | 78% | 1009.2 hPa | 0 mm | - | 0 W/m² | - |
| 1777629849 | 12.78° C | 78% | 1009.6 hPa | 0 mm | - | 0 W/m² | - |
| 1777629545 | 12.78° C | 77% | 1009.5 hPa | 0 mm | - | 0 W/m² | - |
| 1777629242 | 12.78° C | 78% | 1009.5 hPa | 0 mm | - | 0 W/m² | - |
* Rain latest hour (hover to see other rain measurements)
** Current wind speed in m/s (hover to see current wind gust speed)